EA1QW Weather Reports


Display with metric or nautical units.
time (UTC)temp
F
wind
direction
speed
MPH
gust
MPH
rain 1hr
in
rain 24hr
in
rain mn
in
humidity
%
barometer
mb
20260506185515 59 31 1.0 3.0 0.00 0.16 0.01 80 1012.1
20260506185043 59 31 0.0 4.0 0.00 0.16 0.01 79 1012.2
20260506184527 59 31 3.0 4.0 0.00 0.16 0.01 79 1012.1
20260506184014 59 33 1.0 4.0 0.00 0.16 0.01 78 1012.1
20260506183520 59 33 1.0 5.0 0.00 0.16 0.01 78 1012.0
20260506183025 59 22 1.0 5.0 0.00 0.16 0.01 78 1012.0
20260506182513 59 22 2.0 5.0 0.00 0.16 0.01 79 1012.2
20260506182017 60 346 2.0 4.0 0.00 0.16 0.01 79 1012.2
20260506181523 60 345 0.0 4.0 0.00 0.16 0.01 79 1012.2
20260506181026 60 345 1.0 5.0 0.00 0.16 0.01 79 1012.2
20260506180511 60 345 3.0 6.0 0.00 0.16 0.01 79 1012.2
20260506180017 60 340 1.0 8.0 0.00 0.16 0.01 79 1012.2
20260506175540 60 329 3.0 8.0 0.00 0.16 0.01 79 1012.2
20260506175017 60 355 0.0 5.0 0.00 0.16 0.01 80 1012.3
20260506174519 60 5 2.0 10.0 0.00 0.16 0.01 80 1012.3
20260506174020 60 318 4.0 10.0 0.00 0.16 0.01 79 1012.3
20260506173523 60 355 3.0 9.0 0.00 0.16 0.01 80 1012.2
20260506173011 60 330 3.0 10.0 0.00 0.16 0.01 79 1012.2
20260506172514 61 15 5.0 9.0 0.00 0.16 0.01 79 1012.2
20260506172017 61 355 5.0 10.0 0.00 0.16 0.01 77 1012.2
20260506171538 62 38 5.0 10.0 0.00 0.16 0.01 77 1012.3
20260506171041 62 294 4.0 9.0 0.00 0.16 0.01 78 1012.2
20260506170522 62 315 4.0 9.0 0.00 0.16 0.01 77 1012.3
20260506170028 62 306 4.0 8.0 0.00 0.16 0.01 78 1012.3
20260506165515 62 289 2.0 8.0 0.00 0.16 0.01 77 1012.4
20260506165043 62 294 4.0 9.0 0.00 0.16 0.01 77 1012.3
20260506164510 62 288 3.0 9.0 0.00 0.16 0.01 77 1012.3
20260506164038 62 21 2.0 10.0 0.00 0.16 0.01 77 1012.2
20260506163526 62 19 4.0 11.0 0.00 0.16 0.01 77 1012.2
20260506163034 62 11 5.0 11.0 0.00 0.16 0.01 76 1012.1
20260506162541 62 350 2.0 9.0 0.00 0.16 0.01 76 1012.2
20260506162029 62 310 2.0 8.0 0.00 0.16 0.01 76 1012.2
20260506161517 62 307 5.0 8.0 0.00 0.16 0.01 75 1012.1
20260506161045 62 340 2.0 9.0 0.00 0.16 0.01 76 1012.1
20260506160532 62 281 3.0 9.0 0.00 0.16 0.01 76 1012.2
20260506160018 62 315 1.0 10.0 0.00 0.16 0.01 76 1012.1
20260506155544 61 337 3.0 10.0 0.00 0.16 0.01 75 1012.2
20260506155029 61 313 3.0 9.0 0.00 0.16 0.01 76 1012.2
20260506154516 61 316 5.0 10.0 0.00 0.16 0.01 75 1012.2
20260506154021 62 286 5.0 11.0 0.00 0.16 0.01 74 1012.2
20260506153528 62 313 7.0 11.0 0.00 0.16 0.01 73 1012.3
20260506153014 62 311 4.0 11.0 0.00 0.16 0.01 73 1012.3
20260506152522 62 277 4.0 11.0 0.00 0.16 0.01 72 1012.3
20260506152027 62 316 5.0 10.0 0.00 0.16 0.01 72 1012.4
20260506151515 62 296 4.0 11.0 0.00 0.16 0.01 73 1012.4
20260506151019 62 30 7.0 11.0 0.00 0.16 0.01 72 1012.5
20260506150525 62 292 5.0 9.0 0.00 0.16 0.01 74 1012.6
20260506150015 62 282 3.0 12.0 0.00 0.16 0.01 74 1012.6
20260506145520 62 343 4.0 13.0 0.00 0.16 0.01 74 1012.6
20260506145024 63 319 4.0 12.0 0.00 0.16 0.01 72 1012.6
20260506144529 63 300 3.0 12.0 0.00 0.16 0.01 73 1012.6
20260506144016 62 291 2.0 11.0 0.00 0.16 0.01 74 1012.7
20260506143521 62 343 7.0 14.0 0.00 0.16 0.01 75 1012.7
20260506143024 62 307 5.0 14.0 0.00 0.16 0.01 77 1012.7
20260506142528 62 360 6.0 14.0 0.00 0.16 0.01 78 1012.9
20260506142012 62 355 5.0 13.0 0.00 0.16 0.01 81 1012.8
20260506141516 62 282 8.0 13.0 0.00 0.16 0.01 76 1012.8
20260506141035 62 306 6.0 14.0 0.00 0.16 0.01 77 1012.8
20260506140535 62 300 7.0 14.0 0.00 0.16 0.01 75 1012.8
20260506140020 61 351 7.0 14.0 0.00 0.16 0.01 75 1012.9
20260506135523 62 304 6.0 13.0 0.00 0.16 0.01 76 1012.9
20260506135025 61 298 6.0 14.0 0.00 0.16 0.01 76 1012.9
20260506134513 61 319 4.0 14.0 0.00 0.16 0.01 77 1012.9
20260506134015 61 281 6.0 14.0 0.00 0.16 0.01 76 1013.0
20260506133518 60 286 5.0 12.0 0.00 0.16 0.01 79 1013.0
20260506133020 60 294 3.0 12.0 0.00 0.16 0.01 79 1013.1
20260506132523 60 360 5.0 14.0 0.00 0.16 0.01 79 1013.2
20260506132021 60 292 3.0 14.0 0.00 0.16 0.01 79 1013.1
20260506131525 60 298 5.0 12.0 0.00 0.16 0.01 80 1013.1
20260506131011 60 331 5.0 11.0 0.00 0.16 0.01 79 1013.1
20260506130550 60 295 4.0 11.0 0.00 0.16 0.01 78 1013.1
20260506130012 60 313 5.0 9.0 0.00 0.16 0.01 78 1013.1
20260506125517 60 287 4.0 9.0 0.00 0.16 0.01 78 1013.1
20260506125023 60 322 2.0 11.0 0.00 0.16 0.01 77 1013.2
20260506124510 60 281 3.0 11.0 0.00 0.16 0.01 76 1013.2
20260506124037 60 242 3.0 11.0 0.00 0.16 0.01 76 1013.2
20260506123544 60 333 5.0 10.0 0.00 0.16 0.01 75 1013.2
20260506123011 60 261 5.0 10.0 0.00 0.16 0.01 73 1013.2
20260506122520 60 261 2.0 10.0 0.00 0.16 0.01 74 1013.2
20260506122047 61 304 2.0 12.0 0.00 0.16 0.01 75 1013.2
20260506121514 61 297 3.0 12.0 0.00 0.16 0.01 74 1013.2
20260506121021 61 314 4.0 10.0 0.00 0.16 0.01 73 1013.3
20260506120529 62 258 4.0 10.0 0.00 0.16 0.01 73 1013.2
20260506120016 62 281 6.0 11.0 0.00 0.16 0.01 71 1013.3
20260506115519 62 296 4.0 11.0 0.00 0.16 0.01 71 1013.3
20260506115022 62 309 5.0 11.0 0.00 0.16 0.01 70 1013.3
20260506114526 62 292 6.0 11.0 0.00 0.16 0.01 69 1013.3
20260506114013 62 278 4.0 9.0 0.00 0.16 0.01 69 1013.3
20260506113517 62 304 3.0 10.0 0.00 0.16 0.01 70 1013.4
20260506113019 62 275 6.0 12.0 0.00 0.16 0.01 71 1013.4
20260506112518 61 278 7.0 12.0 0.00 0.16 0.01 72 1013.5
20260506112020 61 311 5.0 11.0 0.00 0.16 0.01 72 1013.4
20260506111523 61 311 5.0 11.0 0.00 0.16 0.01 73 1013.5
20260506111011 62 340 4.0 10.0 0.00 0.16 0.01 72 1013.5
20260506110529 62 11 2.0 12.0 0.00 0.16 0.01 72 1013.5
20260506110010 62 294 6.0 11.0 0.00 0.16 0.01 71 1013.5
20260506105514 62 270 5.0 10.0 0.00 0.16 0.01 71 1013.4
20260506105036 61 287 2.0 10.0 0.00 0.16 0.01 73 1013.4
20260506104549 61 345 6.0 10.0 0.00 0.16 0.01 71 1013.5
20260506104012 61 286 2.0 10.0 0.00 0.16 0.01 72 1013.6
20260506103515 61 271 5.0 11.0 0.00 0.16 0.01 71 1013.6
20260506103038 60 283 6.0 11.0 0.00 0.16 0.01 71 1013.5
20260506102520 60 270 6.0 11.0 0.00 0.16 0.01 70 1013.6
20260506102023 60 261 5.0 10.0 0.00 0.16 0.01 70 1013.7
20260506101526 60 275 4.0 10.0 0.00 0.16 0.01 70 1013.7
20260506101029 61 270 2.0 9.0 0.00 0.16 0.01 70 1013.6
20260506100514 61 230 3.0 8.0 0.00 0.16 0.01 71 1013.5
20260506100038 61 202 2.0 8.0 0.00 0.20 0.01 71 1013.5
20260506095520 61 199 4.0 8.0 0.00 0.20 0.01 71 1013.5
20260506095024 61 181 3.0 7.0 0.00 0.20 0.01 72 1013.7
20260506094527 60 208 0.0 9.0 0.00 0.20 0.01 72 1013.5
20260506094013 60 203 5.0 9.0 0.00 0.20 0.01 73 1013.6
20260506093516 60 227 4.0 9.0 0.00 0.20 0.01 73 1013.6
20260506093019 60 197 4.0 8.0 0.00 0.20 0.01 73 1013.5
20260506092522 60 206 2.0 6.0 0.00 0.20 0.01 74 1013.5
20260506092025 60 194 2.0 6.0 0.00 0.20 0.01 74 1013.6
20260506091525 60 186 4.0 7.0 0.00 0.20 0.01 75 1013.5
20260506091028 59 200 4.0 7.0 0.00 0.20 0.01 75 1013.5
20260506090511 59 208 1.0 9.0 0.00 0.20 0.01 75 1013.4
20260506090017 59 207 5.0 9.0 0.00 0.28 0.01 76 1013.5
20260506085539 58 262 3.0 10.0 0.00 0.28 0.01 76 1013.4
20260506085021 58 211 3.0 8.0 0.00 0.28 0.01 76 1013.5
20260506084545 58 196 5.0 8.0 0.00 0.28 0.01 77 1013.5
20260506084027 58 212 3.0 9.0 0.00 0.28 0.01 78 1013.5
20260506083551 57 181 2.0 7.0 0.00 0.28 0.01 79 1013.5
20260506083012 57 200 4.0 7.0 0.00 0.28 0.01 81 1013.5
20260506082536 56 176 4.0 7.0 0.00 0.28 0.01 82 1013.5
20260506082015 56 186 2.0 6.0 0.00 0.28 0.01 84 1013.5
20260506081517 56 186 2.0 5.0 0.00 0.28 0.01 86 1013.6
20260506081021 55 186 1.0 6.0 0.00 0.28 0.01 86 1013.6
20260506080524 55 186 3.0 6.0 0.00 0.28 0.01 86 1013.6
20260506073522 54 208 1.0 6.0 0.00 0.28 0.01 86 1013.5
20260506073026 54 211 2.0 7.0 0.00 0.28 0.01 86 1013.5
20260506072529 54 213 2.0 7.0 0.00 0.28 0.01 86 1013.5
20260506072033 54 216 3.0 5.0 0.00 0.28 0.01 86 1013.5
20260506071515 54 217 3.0 4.0 0.00 0.28 0.01 86 1013.5
20260506071037 54 218 1.0 4.0 0.00 0.28 0.01 86 1013.5
20260506070518 54 218 2.0 5.0 0.00 0.28 0.01 86 1013.5
20260506062028 53 218 0.0 3.0 0.00 0.28 0.01 89 1013.3
20260506061552 53 218 0.0 0.0 0.00 0.28 0.01 89 1013.2
20260506061012 53 218 0.0 3.0 0.00 0.28 0.01 89 1013.2
20260506060515 53 218 0.0 3.0 0.00 0.28 0.01 89 1013.2
20260506051022 52 217 0.0 3.0 0.00 0.28 0.01 92 1012.9
20260506050545 52 217 1.0 4.0 0.00 0.28 0.01 92 1012.8
20260506045016 52 217 1.0 5.0 0.00 0.28 0.01 92 1012.8
20260506044521 52 217 2.0 5.0 0.00 0.28 0.01 92 1012.7
20260506044045 52 217 1.0 4.0 0.00 0.28 0.01 92 1012.9
20260506043546 52 217 1.0 4.0 0.00 0.28 0.01 92 1012.9
20260506043045 52 217 1.0 4.0 0.00 0.28 0.01 92 1012.9
20260506042511 52 217 1.0 4.0 0.00 0.28 0.01 92 1012.9
20260506042014 52 217 0.0 3.0 0.00 0.28 0.01 92 1013.0
20260506041518 52 217 0.0 3.0 0.00 0.28 0.01 92 1013.1
20260506041019 52 217 1.0 6.0 0.00 0.28 0.01 93 1013.1
20260506040522 52 217 1.0 6.0 0.00 0.28 0.01 93 1013.1
20260506040026 52 217 0.0 4.0 0.00 0.31 0.01 93 1013.1
20260506035528 52 217 1.0 5.0 0.00 0.31 0.01 93 1013.1
20260506035011 52 217 1.0 7.0 0.00 0.31 0.01 93 1013.1
20260506034515 52 217 3.0 7.0 0.00 0.31 0.01 93 1013.1
20260506034038 52 218 2.0 7.0 0.00 0.31 0.01 93 1013.2
20260506033520 52 238 2.0 4.0 0.00 0.31 0.01 94 1013.2
20260506033022 52 238 1.0 4.0 0.00 0.31 0.01 94 1013.2
20260506032524 52 238 2.0 3.0 0.00 0.31 0.01 94 1013.3
20260506032027 52 238 1.0 4.0 0.04 0.31 0.01 94 1013.3
20260506031530 52 238 1.0 4.0 0.04 0.31 0.01 94 1013.1
20260506031013 52 238 2.0 4.0 0.04 0.31 0.01 94 1013.2
20260506030517 52 238 0.0 5.0 0.04 0.31 0.01 94 1013.1
20260506030020 52 238 1.0 5.0 0.04 0.31 0.01 94 1013.2
20260506025528 52 238 1.0 5.0 0.04 0.31 0.01 94 1013.3
20260506025016 52 238 1.0 5.0 0.04 0.31 0.01 94 1013.1
20260506024523 52 238 1.0 3.0 0.04 0.31 0.01 94 1013.1
20260506024013 52 238 0.0 0.0 0.04 0.31 0.01 95 1013.2
20260506023541 52 238 0.0 0.0 0.04 0.31 0.01 95 1013.2
20260506023028 52 238 0.0 0.0 0.04 0.31 0.01 95 1013.2
20260506022516 52 238 0.0 0.0 0.04 0.31 0.01 95 1013.2
20260506022021 52 238 0.0 3.0 0.00 0.28 0.00 95 1013.2
20260506021528 52 238 0.0 3.0 0.00 0.28 0.00 95 1013.2
20260506021015 52 238 1.0 3.0 0.00 0.28 0.00 94 1013.4
20260506020524 52 238 0.0 2.0 0.00 0.28 0.00 94 1013.3
20260506020011 52 238 0.0 3.0 0.00 0.28 0.00 94 1013.3
20260506015519 52 238 1.0 4.0 0.00 0.28 0.00 94 1013.3
20260506015027 52 238 2.0 4.0 0.00 0.28 0.00 94 1013.3
20260506014516 52 238 0.0 3.0 0.00 0.28 0.00 94 1013.4
20260506014021 52 238 0.0 3.0 0.00 0.28 0.00 94 1013.3
20260506013529 52 238 0.0 3.0 0.00 0.28 0.00 94 1013.3
20260506013016 52 238 1.0 4.0 0.00 0.28 0.00 94 1013.3
20260506012524 52 238 1.0 4.0 0.00 0.28 0.00 94 1013.3
20260506012011 52 238 0.0 4.0 0.00 0.28 0.00 94 1013.4
20260506011520 52 238 1.0 4.0 0.00 0.28 0.00 94 1013.5
20260506011028 52 238 0.0 3.0 0.00 0.28 0.00 94 1013.5
20260506010537 52 238 0.0 3.0 0.00 0.28 0.00 94 1013.7
20260506010025 53 238 1.0 3.0 0.00 0.28 0.00 94 1013.8
20260506005513 53 238 0.0 4.0 0.00 0.28 0.00 94 1013.9
20260506005021 53 239 1.0 4.0 0.00 0.28 0.00 94 1013.9
20260506004529 53 238 0.0 4.0 0.00 0.28 0.00 94 1013.9
20260506004016 53 238 1.0 4.0 0.00 0.28 0.00 94 1014.0
20260506003522 53 238 1.0 4.0 0.00 0.28 0.00 94 1014.0
20260506003051 53 239 2.0 7.0 0.00 0.28 0.00 94 1014.0
20260506002518 53 239 2.0 7.0 0.00 0.28 0.00 94 1014.1
20260506002046 53 240 1.0 5.0 0.00 0.28 0.00 94 1014.0
20260506001533 53 240 1.0 4.0 0.00 0.28 0.00 94 1014.0
20260506001016 53 240 0.0 5.0 0.00 0.28 0.00 94 1014.0
20260506000524 53 240 0.0 5.0 0.00 0.28 0.00 94 1014.0
20260506000012 53 242 2.0 5.0 0.00 0.28 0.06 94 1014.1
20260505235519 53 242 1.0 5.0 0.00 0.28 0.06 93 1014.0
20260505235027 53 242 1.0 4.0 0.00 0.28 0.06 93 1014.1
20260505234535 53 242 0.0 4.0 0.00 0.28 0.06 93 1014.1
20260505234022 54 242 0.0 0.0 0.00 0.28 0.06 93 1014.2
20260505233510 54 242 0.0 0.0 0.00 0.28 0.06 93 1014.2
20260505233017 54 242 0.0 1.0 0.00 0.28 0.06 93 1014.1
20260505232544 54 242 0.0 1.0 0.04 0.28 0.06 93 1014.1
20260505232032 54 242 0.0 4.0 0.04 0.28 0.06 93 1014.1
20260505231519 54 242 1.0 4.0 0.04 0.28 0.06 93 1014.2
20260505231048 54 243 0.0 4.0 0.04 0.28 0.06 93 1014.2
20260505230515 54 243 1.0 5.0 0.04 0.28 0.06 93 1014.2
20260505230021 54 244 3.0 5.0 0.04 0.28 0.06 93 1014.2
20260505225524 55 245 2.0 5.0 0.12 0.28 0.06 93 1014.2
20260505225027 55 248 0.0 4.0 0.12 0.28 0.06 93 1014.3
20260505224530 55 248 1.0 4.0 0.12 0.28 0.06 92 1014.3
20260505224013 55 248 2.0 4.0 0.12 0.28 0.06 92 1014.3
20260505223536 55 249 2.0 5.0 0.12 0.28 0.06 92 1014.4
20260505223038 55 250 3.0 5.0 0.12 0.28 0.06 92 1014.3
20260505222521 55 250 2.0 4.0 0.08 0.24 0.05 92 1014.3
20260505222024 55 250 1.0 2.0 0.08 0.24 0.05 91 1014.3
20260505221528 55 250 0.0 0.0 0.08 0.24 0.05 91 1014.4
20260505221030 55 250 0.0 0.0 0.08 0.24 0.05 90 1014.3
20260505220511 55 250 0.0 3.0 0.08 0.24 0.05 90 1014.3
20260505220012 55 250 0.0 3.0 0.08 0.24 0.05 90 1014.3
20260505215521 55 250 0.0 2.0 0.00 0.16 0.03 89 1014.3
20260505215029 55 250 1.0 5.0 0.00 0.16 0.03 89 1014.4
20260505214517 55 250 1.0 5.0 0.00 0.16 0.03 89 1014.4
20260505214045 55 252 1.0 5.0 0.00 0.16 0.03 88 1014.4
20260505213512 55 254 1.0 3.0 0.00 0.16 0.03 88 1014.4
20260505213021 55 254 0.0 3.0 0.00 0.16 0.03 88 1014.4
20260505212528 56 254 0.0 4.0 0.00 0.16 0.03 87 1014.4
20260505212016 56 254 2.0 3.0 0.00 0.16 0.03 86 1014.4
20260505211524 56 254 0.0 3.0 0.00 0.16 0.03 86 1014.4
20260505211031 56 254 1.0 3.0 0.00 0.16 0.03 86 1014.4
20260505210519 56 254 0.0 1.0 0.00 0.16 0.03 85 1014.4
20260505210025 56 254 0.0 0.0 0.00 0.51 0.03 84 1014.4
20260505205513 57 254 0.0 0.0 0.00 0.51 0.03 84 1014.4
20260505205022 57 254 0.0 0.0 0.00 0.51 0.03 84 1014.4
20260505204529 57 254 0.0 0.0 0.00 0.51 0.03 84 1014.3
20260505204016 57 254 0.0 4.0 0.00 0.51 0.03 84 1014.4
20260505203523 57 254 0.0 4.0 0.00 0.51 0.03 83 1014.3
20260505203011 57 254 0.0 5.0 0.00 0.51 0.03 83 1014.3
20260505202539 57 254 1.0 5.0 0.00 0.51 0.03 83 1014.2
20260505202026 57 254 0.0 4.0 0.00 0.51 0.03 82 1014.1
20260505201515 57 254 1.0 7.0 0.00 0.51 0.03 82 1014.1
20260505201015 57 254 2.0 7.0 0.00 0.51 0.03 81 1014.1
20260505200523 57 255 1.0 5.0 0.00 0.51 0.03 81 1014.0
20260505200031 58 255 3.0 7.0 0.00 0.59 0.03 80 1014.0
20260505195517 58 258 2.0 8.0 0.00 0.59 0.03 80 1013.9
20260505195046 58 258 6.0 8.0 0.00 0.59 0.03 79 1013.8
20260505194513 58 278 3.0 8.0 0.00 0.59 0.03 79 1013.8
20260505194022 58 266 4.0 8.0 0.00 0.59 0.03 78 1013.7
20260505193510 58 267 3.0 8.0 0.00 0.59 0.03 78 1013.5
20260505193014 58 242 4.0 8.0 0.00 0.59 0.03 78 1013.5
20260505192521 58 254 3.0 9.0 0.00 0.59 0.03 78 1013.4
20260505192029 58 239 4.0 10.0 0.00 0.59 0.03 78 1013.5
20260505191515 58 250 5.0 10.0 0.00 0.59 0.03 78 1013.4
20260505191043 58 269 3.0 8.0 0.00 0.59 0.03 78 1013.5
20260505190510 58 273 3.0 8.0 0.00 0.59 0.03 78 1013.5
20260505190018 59 290 2.0 7.0 0.00 0.67 0.03 77 1013.5